This is the latest recevied weather packets stored in our database for station/object K5SVV. If no packets are shown the sender has not sent any weather packets the latest 10 day(s).
| Time | Temp. | Humidity | Pressure | Rain* | Wind** | Luminosity | Snow |
|---|---|---|---|---|---|---|---|
| 1788478565 | 30.56° C | 64% | 1011.1 hPa | 0 mm | - | 53 W/m² | - |
| 1788478261 | 30.56° C | 64% | 1010.9 hPa | 0 mm | - | 57 W/m² | - |
| 1788477955 | 31.11° C | 64% | 1011 hPa | 0 mm | - | 59 W/m² | - |
| 1788477651 | 30.56° C | 65% | 1011 hPa | 0 mm | - | 115 W/m² | - |
| 1788477345 | 30.56° C | 65% | 1010.8 hPa | 0 mm | - | 65 W/m² | - |
| 1788477039 | 30.56° C | 65% | 1011 hPa | 0 mm | - | 68 W/m² | - |
| 1788476736 | 30.56° C | 66% | 1011.1 hPa | 0 mm | - | 180 W/m² | - |
| 1788476434 | 30.56° C | 66% | 1010.8 hPa | 0 mm | - | 173 W/m² | - |
| 1788476132 | 31.11° C | 66% | 1010.9 hPa | 0 mm | - | 107 W/m² | - |
| 1788475828 | 31.11° C | 65% | 1010.8 hPa | 0 mm | - | 252 W/m² | - |
| 1788475524 | 30.56° C | 66% | 1011 hPa | 0 mm | - | 149 W/m² | - |
| 1788475220 | 30.56° C | 66% | 1010.8 hPa | 0 mm | - | 176 W/m² | - |
| 1788474919 | 30.56° C | 67% | 1011 hPa | 0 mm | - | 212 W/m² | - |
| 1788474618 | 30.56° C | 67% | 1010.9 hPa | 0 mm | - | 173 W/m² | - |
| 1788474314 | 30.56° C | 67% | 1011.1 hPa | 0 mm | - | 167 W/m² | - |
| 1788474012 | 30.56° C | 67% | 1011 hPa | 0 mm | - | 179 W/m² | - |
| 1788473708 | 30.56° C | 67% | 1010.6 hPa | 0 mm | - | 173 W/m² | - |
| 1788473426 | 30.56° C | 68% | 1010.9 hPa | 0 mm | - | 169 W/m² | - |
| 1788473099 | 30.56° C | 68% | 1010.9 hPa | 0 mm | - | 163 W/m² | - |
| 1788472796 | 30.56° C | 69% | 1010.7 hPa | 0 mm | - | 161 W/m² | - |
| 1788472493 | 30.56° C | 69% | 1011 hPa | 0 mm | - | 162 W/m² | - |
| 1788472191 | 30.56° C | 69% | 1011 hPa | 0 mm | - | 177 W/m² | - |
| 1788471887 | 31.11° C | 69% | 1011 hPa | 0 mm | - | 240 W/m² | - |
| 1788471581 | 31.11° C | 69% | 1010.8 hPa | 0 mm | - | 218 W/m² | - |
| 1788471277 | 31.11° C | 68% | 1010.9 hPa | 0 mm | - | 263 W/m² | - |
* Rain latest hour (hover to see other rain measurements)
** Current wind speed in m/s (hover to see current wind gust speed)